User: anonymous
Location: Caltech
(34.1382°N, 118.1253°W)
Time: 10:43:45
(UTC-07:00)
Language:

Cosmos 1484 Rocket - Orbit

View from above orbital plane
View from above orbital plane
View from above satellite
View from above satellite

Ground track
Ground track

The orbit data is extracted from the following two-line orbital elements,

1 14208U 83075B   14260.07674235  .00002083  00000-0  13969-3 0  1148
2 14208 097.4175 293.6593 0041691 350.2026 009.8385 15.07224359696042
Epoch (UTC): 17 September 2014 01:50:30
Eccentricity: 0.0041691
inclination: 97.4175°
perigee height: 516 km
apogee height: 573 km
right ascension of ascending node: 293.6593°
argument of perigee: 350.2026°
revolutions per day: 15.07224359
mean anomaly at epoch: 9.8385°
orbit number at epoch: 69604

The dashed part of the orbit path shows where the satellite is in the earth's shadow,  

DLR